{"data":{"norad_id":66822,"intl_designator":"2025-280B","name":"STARLINK-35958","alt_names":[],"object_type":"PAYLOAD","status":"ACTIVE","operator":null,"country":"US","launch_date":"2025-12-02","launch_site_code":"AFWTR","launch_vehicle":null,"mission":null,"orbit_class":"UNKNOWN","rcs_meters":null,"size_class":null,"mass_kg":null,"dimensions":null,"purposes":["comms"],"wikipedia_slug":null,"has_3d_model":false,"image_url":null,"decayed_at":null,"tle_current":{"epoch":"2026-09-20T06:40:19.919712Z","epoch_age_seconds":103704,"freshness":"FRESH","line1":"1 66822U 25280B   26263.27800833  .00002206  00000+0  19259-3 0  9999","line2":"2 66822  70.0009 203.8162 0003252 269.4295  90.6492 14.98336275 45224","mean_motion":14.98336275,"eccentricity":0.0003252,"inclination_deg":70.0009,"raan_deg":203.8162,"arg_perigee_deg":269.4295,"mean_anomaly_deg":90.6492,"bstar":0.00019259,"rev_number":4522,"period_min":96.106596631654,"perigee_km":569.77628967459,"apogee_km":574.29668250994,"semimajor_km":6950.1734860923,"source":"CELESTRAK","updated_at":"2026-09-21T09:00:36.019573Z"}}}